sat.trackr.live / text

‹ back to catalog

STARLINK-3077

NORAD 49133 · 2021-082D

PAYLOAD ACTIVE UNKNOWN

§ Identity

Operator
Country
US
Launch date
2021-09-14
Launch site
AFWTR
Launch vehicle
Mass (kg)
RCS (m²)

Purposes: comms

External: N2YO · Heavens-Above · Gunter

§ Orbital elements

Epoch: 2026-05-25T03:53:57.084000Z

Period
96.11 min
Inclination
69.9992°
Eccentricity
0.0003580
Mean motion
14.98335944 rev/d
Perigee alt
569.5 km
Apogee alt
574.5 km
Semi-major
6,950.2 km
B*
-4.2996e-5
RAAN
101.6409°
Arg perigee
266.2720°
Mean anomaly
93.8029°
Rev number
25,743

§ Raw data

STARLINK-30771 49133U 21082D   26145.16246625 -.00000606  00000+0 -42996-4 0  99902 49133  69.9992 101.6409 0003580 266.2720  93.8029 14.98335944257430

JSON: /api/v1/satellites/49133 · /tle

For live sub-satellite position, see the globe view (requires WebGL).

§ Visibility from observer

Set your observer location to see the next 7 days of passes ≥ 10°. The values pass through the URL so the page stays shareable.

No JS? Fill the form by hand. The geolocation button needs JavaScript.